Location: ????????
(55.3939°N, 37.4780°E)
Time: 20:18:22
(UTC+00:00)

FENGYUN 3A - Pass Details

Date: 14 April 2026
Orbit: 821 x 832 km, 98.7° (Epoch: 11 May)

Event Time Altitude Azimuth Distance (km) Brightness Sun altitude
Rises 23:35:41 0° 17° (NNE) 3,393 8.2 -19.8°
Reaches altitude 10° 23:38:04 10° 19° (NNE) 2,455 7.2 -19.7°
Maximum altitude 23:43:31 75° 105° (ESE) 868 3.7 -19.2°
Enters shadow 23:46:18 30° 185° (S) 1,458 4.5 -19.0°
